Hourly Data Report for October 17, 2003

SHERBROOKE A
QUEBEC

45°26'00.000" N
71°41'00.000" W
241.40 m
7028124
71610
YSC

Download Data

Hourly Data (October 2003)
Hourly Data Report for October 17, 2003
TIME
LST
Temp Definition
°C
Dew Point Definition
°C
Rel Hum Definition
%
Precip. Amount Definition
mm

Wind Dir Definition
10's deg

Wind Spd Definition
km/h
Visibility Definition
km
Stn Press Definition
kPa
Hmdx Definition


Wind Chill Definition


Weather Definition


00:00 1.6 0.2 90   23 11 15.0 98.58      
01:00 0.8 -0.4 92   22 7 15.0 98.63      
02:00 1.3 -0.5 88   23 11 15.0 98.67      
03:00 1.6 -0.7 85   23 7 15.0 98.69      
04:00 1.5 -0.3 88     0 15.0 98.72      
05:00 1.9 0.0 87   25 4 15.0 98.77      
06:00 2.0 0.4 89   21 4 15.0 98.82      
07:00 1.8 0.3 90     0 24.1 98.88     Mostly Cloudy
08:00 4.4 2.5 87   24 7 24.1 98.92     Mainly Clear
09:00 5.7 1.2 73   27 15 24.1 98.94     Mainly Clear
10:00 7.6 0.9 62   25 11 24.1 98.97     Mostly Cloudy
11:00 6.8 -1.7 55   25 20 24.1 98.97     Mostly Cloudy
12:00 7.0 -1.8 53   27 22 24.1 98.96     Mostly Cloudy
13:00 6.3 -1.0 60   24 17 24.1 98.95     Mostly Cloudy
14:00 5.8 0.5 69   23 17 24.1 98.98     Mostly Cloudy
15:00 5.8 1.2 72   24 11 24.1 98.98     Mostly Cloudy
16:00 5.2 1.7 78   22 9 24.1 98.99     Mostly Cloudy
17:00 4.1 1.7 84   20 7 15.0 99.02      
18:00 3.0 1.6 90   20 4 15.0 99.05      
19:00 3.1 1.6 90   21 4 15.0 99.07      
20:00 2.6 1.3 91   17 4 15.0 99.04      
21:00 3.0 1.1 87   20 6 15.0 99.04      
22:00 3.0 1.1 87   23 4 15.0 99.03      
23:00 3.0 1.1 87   25 6 15.0 99.00      

Notes on Data Quality.

Legend

  • E = Estimated
  • M = Missing
  • NA = Not Available*
  • [empty] = Indicates an unobserved value
Date modified: